User: anonymous   Login
Location: Lancaster
(34.6980°N, 118.1360°W)
Time: 11:20:20
(UTC-08:00)
Language:

N. Korean satellite - Orbit

View from above orbital plane
View from above orbital plane
View from above satellite
View from above satellite

Ground track
Ground track

The orbit data is extracted from the following two-line orbital elements,

1 39026U 12072A   18016.07691095  .00001163  00000-0  46563-4 0  9994
2 39026  97.2147  31.6337 0040843 140.8677 219.5528 15.26282180282455
Epoch (UTC): 16 January 2018 01:50:45
Eccentricity: 0.0040843
inclination: 97.2147°
perigee height: 459 km
apogee height: 515 km
right ascension of ascending node: 31.6337°
argument of perigee: 140.8677°
revolutions per day: 15.26282180
mean anomaly at epoch: 219.5528°
orbit number at epoch: 28245

The dashed part of the orbit path shows where the satellite is in the earth's shadow,  

DLR